This is the latest recevied weather packets stored in our database for station/object DL6MAA-11. If no packets are shown the sender has not sent any weather packets the latest 10 day(s).
| Time | Temp. | Humidity | Pressure | Rain* | Wind** | Luminosity | Snow |
|---|---|---|---|---|---|---|---|
| 1777989712 | 17.78° C | 58% | 1005.2 hPa | 0 mm | - | 218 W/m² | - |
| 1777989421 | 17.78° C | 58% | 1005.3 hPa | 0 mm | - | 258 W/m² | - |
| 1777989109 | 17.78° C | 60% | 1005.3 hPa | 0 mm | - | 248 W/m² | - |
| 1777988816 | 17.78° C | 59% | 1005.3 hPa | 0 mm | - | 262 W/m² | - |
| 1777988512 | 17.22° C | 60% | 1005.2 hPa | 0 mm | - | 265 W/m² | - |
| 1777988220 | 17.22° C | 60% | 1005.2 hPa | 0 mm | - | 213 W/m² | - |
| 1777987912 | 17.22° C | 61% | 1005.2 hPa | 0 mm | - | 160 W/m² | - |
| 1777987614 | 17.22° C | 62% | 1005.2 hPa | 0 mm | - | 130 W/m² | - |
| 1777987313 | 17.22° C | 63% | 1005.2 hPa | 0 mm | - | 120 W/m² | - |
| 1777987018 | 17.78° C | 62% | 1005.2 hPa | 0 mm | - | 125 W/m² | - |
| 1777986723 | 17.78° C | 62% | 1004.9 hPa | 0 mm | - | 137 W/m² | - |
| 1777986422 | 17.78° C | 61% | 1004.9 hPa | 0 mm | - | 121 W/m² | - |
| 1777986124 | 18.33° C | 62% | 1004.9 hPa | 0 mm | - | 162 W/m² | - |
| 1777985813 | 18.33° C | 61% | 1004.9 hPa | 0 mm | - | 178 W/m² | - |
| 1777985519 | 18.33° C | 61% | 1004.9 hPa | 0 mm | - | 209 W/m² | - |
| 1777985223 | 18.33° C | 59% | 1004.9 hPa | 0 mm | - | 236 W/m² | - |
| 1777984929 | 18.33° C | 58% | 1004.8 hPa | 0 mm | - | 241 W/m² | - |
| 1777984614 | 18.33° C | 58% | 1004.8 hPa | 0 mm | - | 207 W/m² | - |
| 1777984313 | 18.33° C | 56% | 1004.8 hPa | 0 mm | - | 144 W/m² | - |
| 1777984017 | 18.33° C | 54% | 1005 hPa | 0 mm | - | 116 W/m² | - |
| 1777983726 | 18.33° C | 58% | 1005 hPa | 0 mm | - | 121 W/m² | - |
| 1777983410 | 18.89° C | 58% | 1005 hPa | 0 mm | - | 127 W/m² | - |
| 1777983113 | 18.89° C | 56% | 1004.7 hPa | 0 mm | - | 132 W/m² | - |
| 1777982815 | 19.44° C | 55% | 1004.7 hPa | 0 mm | - | 111 W/m² | - |
| 1777982520 | 19.44° C | 54% | 1004.7 hPa | 0 mm | - | 137 W/m² | - |
* Rain since midnight (hover to see other rain measurements)
** Current wind speed in m/s (hover to see current wind gust speed)